Location: Caltech
(34.1382°N, 118.1253°W)
Time: 15:32:57
(UTC-07:00)

Cosmos 1939 Rocket - Visible Passes

Search period start: 01 April 2015 00:00
Search period end: 11 April 2015 00:00
Orbit: 535 x 593 km, 97.6° (Epoch: 01 April)

Date Brightness Start Highest point End Pass type
(mag) Time Alt. Az. Time Alt. Az. Time Alt. Az.
01 Apr 4.5 21:24:32 28° N 21:24:32 28° N 21:26:38 10° N visible
02 Apr 4.4 21:24:33 30° N 21:24:33 30° N 21:26:45 10° N visible
03 Apr 4.3 21:24:34 31° N 21:24:34 31° N 21:26:51 10° N visible
04 Apr 4.2 21:24:35 32° N 21:24:35 32° N 21:26:57 10° N visible
05 Apr 4.2 21:24:36 34° N 21:24:36 34° N 21:27:03 10° N visible
06 Apr 4.1 21:24:36 35° N 21:24:36 35° N 21:27:08 10° N visible
07 Apr 4.0 21:24:36 37° N 21:24:36 37° N 21:27:13 10° N visible
08 Apr 3.9 21:24:36 38° NNE 21:24:36 38° NNE 21:27:18 10° N visible
09 Apr 3.8 21:24:35 40° NNE 21:24:35 40° NNE 21:27:22 10° N visible
10 Apr 3.8 21:24:34 42° NNE 21:24:34 42° NNE 21:27:25 10° N visible
